[[{"header":{"parameterUnit":"m.s-1","parameterCategory":1,"la1":30.2991,"la2":30.254,"lo1":-89.0895,"lo2":-89.0444,"dy":0.0017,"dx":0.0017,"nx":28,"ny":28,"refTime":"2025-04-28T03:00:00:Z","depth":0,"parameterNumber":2,"parameterNumberName":"U-component_of_WINDS"},"data":[0,0,0,0,0,0,0,0,0,0,0,0,0,0,0,0,0,0,0,0,0,0,0,0,0,0,0,0,0,0,0,0,0,0,0,0,0,0,0,0,0,0,0,0,0,0,0,0,0,0,0,0,0,0,0,0,0,0,-0.2069,-0.2068,0,-0.2008,-0.2007,-0.2007,-0.1972,-0.1971,-0.1971,-0.1971,-0.1908,-0.1906,-0.1905,0,0,0,0,0,0,0,0,0,0,0,0,0,-0.2155,-0.2154,-0.2069,-0.2068,-0.2067,-0.2008,-0.2007,-0.2006,-0.1972,-0.1971,-0.1971,-0.1971,-0.1908,-0.1907,-0.1905,0,0,0,0,0,0,0,0,0,0,0,0,0,-0.2108,-0.2153,-0.2069,-0.2043,-0.204,-0.2008,-0.2007,-0.2006,-0.1972,-0.1971,-0.1971,-0.1971,-0.1909,-0.1907,-0.1904,-0.1894,0,0,-0.1897,-0.1896,0,0,0,0,0,0,0,0,-0.2111,-0.2105,-0.2047,-0.2045,-0.2041,-0.1997,-0.2014,-0.1968,-0.1972,-0.1997,-0.1971,-0.1971,-0.1938,-0.1933,-0.1922,-0.1891,-0.1888,-0.1897,-0.1896,-0.1895,-0.1894,0,0,0,0,0,0,0,-0.2114,-0.2107,-0.2045,-0.2047,-0.2043,-0.2034,-0.2027,-0.2005,-0.1969,-0.1995,-0.1993,-0.1986,-0.1936,-0.1924,-0.192,-0.1887,-0.1897,-0.1895,-0.1894,-0.1893,-0.1845,-0.1845,0,0,0,0,0,0,-0.2122,-0.211,-0.2047,-0.2043,-0.2076,-0.2033,-0.2025,-0.2011,-0.197,-0.1963,-0.1986,-0.1984,-0.1928,-0.1923,-0.1918,-0.1903,-0.1895,-0.1892,-0.1891,-0.1845,-0.1845,-0.1846,0,0,0,0,0,0,-0.2124,-0.2116,-0.2049,-0.2076,-0.2067,-0.2031,-0.2016,-0.201,-0.1999,-0.1963,-0.1956,-0.1981,-0.1928,-0.1921,-0.19,-0.1901,-0.1891,-0.1889,-0.1845,-0.1845,-0.1845,-0.1874,0,0,0,0,0,0,-0.2126,-0.2117,-0.2113,-0.2076,-0.2065,-0.2033,-0.2016,-0.2009,-0.1995,-0.1992,-0.1956,-0.195,-0.1927,-0.1904,-0.1898,-0.1897,-0.1887,-0.1845,-0.1845,-0.1845,-0.1873,-0.1875,-0.1877,0,0,0,0,0,-0.2129,-0.2123,-0.2113,-0.2105,-0.2059,-0.2033,-0.2027,-0.2001,-0.1995,-0.199,-0.1967,-0.1951,-0.1902,-0.1902,-0.1895,-0.1894,-0.1845,-0.1845,-0.1845,-0.1872,-0.1875,-0.1877,0,0,0,0,0,0,-0.216,-0.2117,-0.2106,-0.2087,-0.2064,-0.2027,-0.202,-0.2005,-0.1983,-0.1981,-0.195,-0.1942,-0.1925,-0.1907,-0.1908,-0.1882,-0.1871,-0.187,-0.1894,-0.1896,-0.1898,-0.1903,-0.1885,0,0,0,0,0,-0.2164,-0.2146,-0.211,-0.2097,-0.2086,-0.2055,-0.2043,-0.2026,-0.2,-0.199,-0.1965,-0.1941,-0.1921,-0.1907,-0.1886,-0.187,-0.1862,-0.1866,-0.1868,-0.187,-0.1869,-0.186,-0.1862,-0.1847,-0.1847,-0.1847,0,0,-0.2173,-0.2148,-0.2138,-0.2103,-0.2083,-0.2065,-0.2047,-0.2029,-0.2016,-0.1987,-0.1966,-0.1948,-0.1919,-0.1901,-0.1891,-0.1885,-0.1872,-0.187,-0.1872,-0.187,-0.1861,-0.1862,-0.1864,-0.1847,-0.1847,-0.1847,0,0,-0.2181,-0.216,-0.2147,-0.2128,-0.2098,-0.2077,-0.2075,-0.204,-0.2027,-0.2006,-0.1984,-0.1968,-0.1932,-0.1913,-0.1898,-0.19,-0.1885,-0.1894,-0.1905,-0.1897,-0.1898,-0.1899,-0.19,-0.1901,-0.1894,-0.1894,-0.1894,0,-0.2196,-0.2168,-0.2142,-0.2126,-0.2111,-0.2085,-0.2072,-0.2054,-0.2019,-0.201,-0.2003,-0.1959,-0.1938,-0.1915,-0.1916,-0.1905,-0.1901,-0.1898,-0.19,-0.1901,-0.1901,-0.1902,-0.1903,-0.1895,-0.1895,-0.1895,-0.1895,0,-0.2188,-0.217,-0.2163,-0.2131,-0.2115,-0.2101,-0.2072,-0.206,-0.2044,-0.2025,-0.2004,-0.1978,-0.1951,-0.1944,-0.1928,-0.192,-0.1917,-0.1906,-0.1895,-0.1905,-0.1905,-0.1905,-0.1897,-0.1897,-0.1896,-0.1896,0,0,-0.2212,-0.2167,-0.2165,-0.215,-0.2116,-0.2101,-0.2086,-0.206,-0.2051,-0.2027,-0.2014,-0.1985,-0.1975,-0.1959,-0.1941,-0.1934,-0.1938,-0.1923,-0.1922,-0.1927,-0.1928,-0.1937,-0.1938,-0.1927,-0.1927,-0.1927,-0.193,0,-0.2215,-0.2187,-0.2163,-0.2143,-0.2126,-0.2102,-0.2089,-0.2067,-0.2048,-0.2031,-0.2011,-0.1991,-0.1979,-0.1969,-0.1961,-0.1939,-0.1937,-0.1938,-0.1915,-0.1914,-0.1923,-0.1938,-0.1947,-0.1951,-0.193,-0.193,-0.193,0,-0.2215,-0.2193,-0.2172,-0.2141,-0.2133,-0.2121,-0.2097,-0.2081,-0.2056,-0.2043,-0.2026,-0.2007,-0.199,-0.1981,-0.1958,-0.1959,-0.1948,-0.1936,-0.1935,-0.1932,-0.1923,-0.1935,-0.1951,-0.1952,-0.193,-0.193,-0.193,0,-0.2235,-0.2201,-0.2184,-0.2172,-0.2135,-0.2128,-0.2112,-0.2087,-0.2074,-0.2052,-0.2043,-0.202,-0.2007,-0.199,-0.1966,-0.1961,-0.1945,-0.1934,-0.1934,-0.1935,-0.1932,-0.1933,-0.1947,-0.1925,-0.1925,-0.1925,-0.1925,0,-0.2241,-0.2229,-0.2193,-0.2183,-0.2169,-0.2142,-0.2129,-0.2112,-0.2089,-0.2075,-0.2053,-0.204,-0.2009,-0.1993,-0.1974,-0.1958,-0.1952,-0.1941,-0.1936,-0.1944,-0.1945,-0.1936,-0.1935,-0.1925,-0.1925,-0.1925,-0.1925,0,-0.2261,-0.2236,-0.2217,-0.2184,-0.2175,-0.2167,-0.2139,-0.2128,-0.2109,-0.2092,-0.2086,-0.2056,-0.2036,-0.201,-0.1981,-0.1969,-0.1955,-0.1947,-0.1964,-0.1961,-0.1963,-0.1964,-0.1973,-0.1973,-0.195,-0.195,-0.1951,0,-0.2266,-0.2257,-0.2223,-0.2213,-0.2198,-0.2181,-0.2167,-0.2141,-0.2128,-0.21,-0.2093,-0.2071,-0.2052,-0.2021,-0.1997,-0.1975,-0.1967,-0.1972,-0.1963,-0.1971,-0.1968,-0.1969,-0.1968,-0.1974,-0.1974,-0.1974,-0.1975,0,-0.2279,-0.2268,-0.2249,-0.2227,-0.2212,-0.2193,-0.2174,-0.2166,-0.2136,-0.2123,-0.2102,-0.2088,-0.2059,-0.2038,-0.2014,-0.1997,-0.1981,-0.1978,-0.1977,-0.1984,-0.1994,-0.1989,-0.197,-0.1977,-0.1977,-0.1977,-0.1977,-0.1977,-0.2292,-0.2283,-0.2258,-0.2239,-0.2222,-0.2204,-0.2193,-0.2173,-0.2156,-0.2131,-0.2116,-0.2097,-0.2073,-0.2038,-0.2023,-0.2007,-0.2001,-0.1999,-0.1999,-0.1999,-0.2002,-0.1997,-0.2002,-0.2002,-0.2002,-0.2002,-0.2002,0,-0.2304,-0.2287,-0.227,-0.2244,-0.2229,-0.2215,-0.2193,-0.2182,-0.2165,-0.2144,-0.2127,-0.2104,-0.2083,-0.2058,-0.2036,-0.2029,-0.2021,-0.2024,-0.2024,-0.2021,-0.2008,-0.2012,-0.2031,-0.2031,-0.2031,-0.2031,-0.2031,-0.2031,-0.2308,-0.2292,-0.2279,-0.2254,-0.2238,-0.2219,-0.2207,-0.2191,-0.2175,-0.215,-0.2134,-0.2118,-0.2095,-0.2072,-0.2053,-0.2046,-0.2039,-0.2045,-0.2036,-0.2024,-0.2022,-0.2019,-0.2022,-0.2044,-0.2044,-0.205,-0.205,-0.205]},{"header":{"parameterUnit":"m.s-1","parameterCategory":1,"la1":30.2991,"la2":30.254,"lo1":-89.0895,"lo2":-89.0444,"dy":0.0017,"dx":0.0017,"nx":28,"ny":28,"refTime":"2025-04-28T03:00:00:Z","depth":0,"parameterNumber":3,"parameterNumberName":"V-component_of_WINDS"},"data":[0,0,0,0,0,0,0,0,0,0,0,0,0,0,0,0,0,0,0,0,0,0,0,0,0,0,0,0,0,0,0,0,0,0,0,0,0,0,0,0,0,0,0,0,0,0,0,0,0,0,0,0,0,0,0,0,0,0,1.1261,1.1261,0,1.1303,1.1304,1.1304,1.1345,1.1345,1.1346,1.1346,1.139,1.1391,1.1391,0,0,0,0,0,0,0,0,0,0,0,0,0,1.1215,1.1215,1.1261,1.1261,1.1262,1.1303,1.1304,1.1304,1.1345,1.1345,1.1346,1.1346,1.139,1.139,1.1391,0,0,0,0,0,0,0,0,0,0,0,0,0,1.1244,1.1215,1.1261,1.1287,1.129,1.1303,1.1304,1.1304,1.1344,1.1345,1.1346,1.1347,1.1389,1.139,1.1391,1.1382,0,0,1.1395,1.1395,0,0,0,0,0,0,0,0,1.1242,1.1245,1.1282,1.1285,1.1288,1.1319,1.1304,1.1331,1.1344,1.1324,1.1346,1.1347,1.1366,1.1369,1.1375,1.1384,1.1386,1.1395,1.1395,1.1396,1.1396,0,0,0,0,0,0,0,1.124,1.1244,1.1278,1.1283,1.1286,1.1297,1.1302,1.1309,1.134,1.1325,1.1329,1.1333,1.1368,1.1374,1.1376,1.1387,1.1395,1.1396,1.1396,1.1397,1.1391,1.139,0,0,0,0,0,0,1.1234,1.1242,1.1276,1.1279,1.1266,1.1297,1.1302,1.1309,1.134,1.1345,1.1332,1.1335,1.1372,1.1375,1.1378,1.1369,1.1396,1.1397,1.1397,1.1392,1.1391,1.139,0,0,0,0,0,0,1.1233,1.1236,1.1274,1.1261,1.1267,1.1297,1.1303,1.1309,1.1316,1.1345,1.1351,1.1333,1.1373,1.1377,1.1381,1.1371,1.1397,1.1398,1.1393,1.1391,1.139,1.1352,0,0,0,0,0,0,1.1231,1.1236,1.1233,1.1261,1.1267,1.1276,1.1303,1.1309,1.1317,1.1321,1.1347,1.1353,1.1374,1.1379,1.1382,1.1373,1.1399,1.1394,1.1392,1.1391,1.1354,1.1349,1.1346,0,0,0,0,0,1.1229,1.122,1.1232,1.1236,1.1264,1.1276,1.1279,1.1304,1.1316,1.1313,1.1332,1.1352,1.1372,1.1379,1.1383,1.1374,1.1394,1.1392,1.1391,1.1356,1.135,1.1346,0,0,0,0,0,0,1.119,1.1224,1.1238,1.1238,1.1253,1.1282,1.1279,1.1297,1.131,1.1312,1.1342,1.1348,1.1349,1.1362,1.1369,1.1367,1.1386,1.1385,1.1358,1.1353,1.1349,1.1345,1.14,0,0,0,0,0,1.1181,1.1188,1.1218,1.1214,1.1222,1.1249,1.1255,1.1273,1.129,1.1297,1.1316,1.1333,1.1343,1.1349,1.136,1.1356,1.1363,1.1352,1.1348,1.1344,1.1343,1.1342,1.1337,1.1384,1.1384,1.1384,0,0,1.1163,1.1183,1.1185,1.1207,1.1221,1.1228,1.1254,1.126,1.1265,1.1298,1.1303,1.1318,1.1338,1.1338,1.1339,1.1349,1.1331,1.1342,1.1339,1.134,1.134,1.1335,1.1331,1.1383,1.1383,1.1383,0,0,1.1134,1.1149,1.1148,1.1162,1.1183,1.1202,1.1201,1.1228,1.1239,1.1244,1.1269,1.1276,1.1293,1.1306,1.1315,1.129,1.1309,1.1293,1.1271,1.1269,1.1266,1.1262,1.1253,1.125,1.1292,1.1292,1.1292,0,1.1109,1.1119,1.1145,1.1149,1.1158,1.1188,1.1187,1.12,1.1223,1.1229,1.124,1.1261,1.1277,1.1281,1.1275,1.1281,1.1282,1.129,1.1264,1.1261,1.1259,1.125,1.1247,1.129,1.129,1.129,1.129,0,1.1087,1.1094,1.109,1.1112,1.1121,1.1122,1.1149,1.1154,1.1171,1.1188,1.1193,1.1214,1.1229,1.1231,1.1248,1.1237,1.1243,1.1258,1.1278,1.1252,1.1244,1.1241,1.1287,1.1287,1.1288,1.1289,0,0,1.1033,1.107,1.1068,1.1078,1.1104,1.111,1.1113,1.1128,1.1132,1.1147,1.115,1.1164,1.1179,1.1189,1.1207,1.1206,1.1185,1.1222,1.1223,1.1214,1.1174,1.1161,1.1157,1.1197,1.1197,1.1197,1.1172,0,1.1008,1.1014,1.1038,1.1038,1.1044,1.1073,1.1076,1.1092,1.1108,1.1116,1.1134,1.1143,1.1162,1.1168,1.1168,1.1187,1.1177,1.119,1.12,1.12,1.1193,1.1154,1.114,1.1116,1.1169,1.1169,1.1169,0,1.0978,1.0992,1.0991,1.1017,1.1021,1.1022,1.1038,1.1045,1.1064,1.1076,1.1087,1.1108,1.1113,1.1131,1.1138,1.1146,1.1152,1.1162,1.1161,1.1163,1.1182,1.1153,1.1109,1.1105,1.1164,1.1165,1.1165,0,1.0938,1.0956,1.0959,1.0967,1.0997,1.0997,1.101,1.1029,1.1037,1.1051,1.1056,1.107,1.1078,1.1088,1.1112,1.1123,1.1116,1.1136,1.1126,1.1125,1.1122,1.1122,1.1078,1.1127,1.1127,1.1127,1.1127,0,1.0906,1.0905,1.0941,1.0942,1.0942,1.0969,1.0968,1.0984,1.1001,1.1006,1.1032,1.1036,1.1067,1.1075,1.1094,1.1096,1.11,1.1109,1.1114,1.1107,1.1105,1.111,1.1112,1.1126,1.1126,1.1126,1.1127,0,1.0861,1.0885,1.089,1.0918,1.0925,1.0923,1.0947,1.095,1.0968,1.0973,1.0976,1.1004,1.1015,1.104,1.1057,1.1069,1.1067,1.1076,1.106,1.1063,1.1051,1.1051,1.1008,1.1004,1.1056,1.1055,1.1055,0,1.0839,1.0839,1.0867,1.0872,1.0883,1.0891,1.0899,1.0926,1.0933,1.0955,1.0955,1.0967,1.0978,1.0994,1.1016,1.1029,1.1038,1.1022,1.104,1.1033,1.1037,1.1037,1.1037,1.1018,1.1017,1.1017,1.1016,0,1.0797,1.0809,1.0819,1.0833,1.0842,1.0854,1.0868,1.0871,1.0902,1.0909,1.0919,1.0928,1.0945,1.0957,1.0974,1.0987,1.1006,1.101,1.1008,1.1,1.0991,1.0995,1.1048,1.1011,1.1012,1.1012,1.1012,1.1012,1.0763,1.0763,1.0783,1.0794,1.0807,1.082,1.0823,1.0842,1.0851,1.0867,1.0883,1.0892,1.0911,1.0935,1.0947,1.0955,1.0965,1.0962,1.0961,1.096,1.0957,1.099,1.0958,1.0958,1.0958,1.0958,1.0959,0,1.0721,1.0736,1.0745,1.0763,1.0772,1.079,1.0806,1.0812,1.0819,1.0836,1.0846,1.0858,1.087,1.0893,1.0907,1.0909,1.0918,1.0911,1.0911,1.0914,1.0947,1.0947,1.0903,1.0903,1.0903,1.0903,1.0903,1.0903,1.0701,1.0703,1.0717,1.0727,1.0741,1.075,1.0758,1.077,1.0783,1.0795,1.0805,1.082,1.0839,1.0855,1.0866,1.0873,1.0876,1.0866,1.0876,1.0906,1.0911,1.0916,1.0916,1.0867,1.0867,1.0842,1.0841,1.0841]}]]